Find Starlink 5199

NORAD ID: 54201 Int'l Des: 2022-141 Owner: SPXS Country: US Constellation: starlink operational
LEOCIRCULAR

リアルタイム位置

3D地球を読み込み中...

Starlink 5199について

説明を読み込み中...

次回通過

Passes for default location (London). Set your location on the main map for personalized predictions.

高度履歴

Loading altitude history...

軌道要素

1 54201U 22141AW 26104.43143227 .00001215 00000-0 94435-4 0 9999
2 54201 53.2172 193.6666 0001179 96.8624 263.2502 15.08823948191395
Epoch: Apr 14, 2026 • Age: 14 hours

現在のステータス

高度 557.0 km
速度 7.58 km/s
衛星直下点 -48.02°S, 138.85°W
打ち上げ日 Oct 28, 2022
運用期間 3.4 years
タイプ internet

技術仕様

分類 Payload
質量 305.00 kg
乾燥質量 290.00 kg
総質量 305.00 kg
長さ 0.20 m
直径 2.80 m
スパン 9.00 m
形状 Box + pan
製造者 SPXS
バスタイプ Starlink
フェーズステータス In Orbit
所有者/国 SPXS/US

Most Searched